CAPE
0 0 0 0 0 0 0 0 0 0 0 0 0 0 0 0 0 0 0 0 0 0 0 16 12 2 6 9 486 584 586 545 560 641 653 680 654 578 594 602 592 494 423 389 328 321 714 814 849 916 1027 1006 1071 1242 1275 1290 1238 1142 1054 951 1202 1110 970 895 1182 1117 962 1164 1324 1331 1478 1616 1573 1510 1383 1142 1062 1635 1919 1982 2077 2021 1905 2091 2116 2565
0 0 0 0 0 0 0 0 0 0 0 0 0 0 0 0 0 0 0 0 0 0 0 0 21 7 4 16 276 540 563 522 501 550 569 708 680 652 632 580 520 549 489 414 372 279 321 666 739 802 893 924 958 1163 1230 1237 1238 1157 1141 1154 1275 1098 1019 897 1110 1167 1063 1150 1192 1330 1505 1550 1553 1485 1399 1425 1212 1116 1671 1864 2100 2147 1917 1999 2162 2472
0 0 0 0 0 0 0 0 0 0 0 0 0 0 0 0 0 0 0 7 12 0 0 0 16 2 4 44 210 373 526 508 510 588 599 707 701 666 641 604 571 519 506 422 404 324 390 445 379 613 769 880 901 1075 1163 1207 1162 1121 1146 1217 1367 1130 1069 908 1082 1249 1169 1151 1241 1109 1374 1510 1538 1475 1510 1452 1451 1235 1356 1749 2036 2225 2088 1987 2168 2327
0 0 0 0 0 0 0 0 0 0 0 0 0 0 0 0 0 0 0 0 10 2 0 0 21 14 5 51 152 191 453 448 462 547 618 688 718 660 676 665 611 572 564 594 598 568 527 534 495 483 583 773 848 981 1079 1120 1118 1069 1049 1200 1294 1312 1248 1207 1150 1472 1284 1224 1307 1201 1300 1449 1492 1448 1437 1425 1454 1256 1372 1754 1972 2231 2202 2061 2180 2264
0 0 0 0 0 0 0 0 0 0 0 0 0 0 0 0 0 0 0 0 0 1 3 12 10 14 4 80 74 103 194 149 336 483 561 656 693 672 672 676 662 660 640 624 634 615 588 593 564 506 502 609 802 901 1013 1098 1106 1087 1066 1115 1251 1350 1335 1299 1376 1471 1397 1490 1372 1311 1281 1435 1442 1385 1245 1232 1294 1337 1534 1860 1973 2141 2257 2183 2208 2260
0 0 0 0 0 0 0 0 0 0 0 0 0 0 0 0 0 0 0 0 0 0 3 5 12 16 5 17 41 49 34 49 126 342 436 567 679 678 676 724 693 674 659 652 610 490 503 601 557 497 501 525 621 772 929 1071 1115 1112 1091 1095 1136 1286 1323 1288 1362 1444 1434 1485 1363 1308 1247 1354 1370 1310 1162 1125 1183 1250 1426 2034 1992 2095 2238 2228 2231 2263
0 0 0 0 0 0 0 0 0 0 0 0 0 0 0 0 0 0 0 0 0 0 0 2 7 12 0 0 7 20 10 12 56 197 192 336 499 611 640 690 746 732 690 645 603 547 438 592 540 529 533 467 513 616 763 968 1083 1108 1086 1062 1190 1271 1298 1270 1437 1441 1571 1457 1371 1249 1205 1166 1263 1258 1094 1058 1054 1156 1144 1985 2109 2060 2174 2259 2154 2310
0 0 0 0 0 0 0 0 0 0 0 0 0 0 0 0 0 0 0 0 0 0 0 2 4 58 54 0 0 0 0 8 22 67 99 97 82 308 488 574 635 698 723 667 543 418 432 596 574 582 582 575 589 642 650 865 965 1045 1068 1076 1191 1286 1359 1214 1466 1462 1525 1431 1383 1263 1182 1126 1113 1116 1125 995 988 1031 1058 1855 2096 2053 2173 2231 2125 2185
0 0 0 0 0 0 0 0 0 0 0 0 0 0 0 0 0 0 0 0 0 0 0 3 2 14 28 9 41 36 30 8 16 66 125 136 106 100 310 476 566 714 750 719 648 463 433 644 640 627 613 612 629 647 641 812 914 997 1078 1106 1206 1305 1429 1260 1509 1477 1500 1460 1354 1319 1222 1165 1135 1078 1070 1025 942 956 1040 1515 1953 2027 2153 2220 2105 2085
0 0 0 0 0 0 0 0 0 0 0 0 0 0 0 0 0 0 0 0 0 0 0 0 3 4 7 0 0 37 4 9 2 66 147 204 159 142 134 180 400 703 775 754 734 603 490 638 678 672 658 651 675 684 678 670 857 925 1048 1064 1204 1290 1458 1355 1529 1537 1489 1462 1386 1289 1246 1176 1145 1175 1112 1080 989 944 950 1070 1752 1973 2100 2133 2132 2049
0 0 0 0 0 0 0 0 0 0 0 0 0 0 0 0 0 0 0 0 0 0 0 0 2 0 0 0 0 0 0 0 3 32 100 290 280 226 213 189 295 633 777 799 770 700 594 598 657 709 714 714 736 729 719 692 770 852 923 1016 1118 1258 1444 1434 1516 1522 1502 1445 1404 1316 1259 1194 1106 1143 1177 1115 1007 963 989 928 1288 1860 1962 2068 2038 2044
0 0 0 0 0 0 0 0 0 0 0 0 0 0 0 0 0 0 0 0 0 0 0 0 0 0 0 0 0 0 0 0 3 43 56 195 383 385 342 275 316 496 774 805 807 784 696 613 625 706 762 755 778 764 744 737 694 855 848 917 1052 1116 1341 1472 1503 1520 1507 1458 1407 1325 1248 1200 1100 1031 1203 1148 1066 966 1106 990 944 1561 1807 1898 1988 1934
0 0 0 0 0 0 0 0 0 0 0 0 0 0 0 0 0 0 0 0 0 0 0 0 0 0 0 0 0 0 0 0 0 22 65 84 281 490 440 388 387 482 734 821 824 834 779 680 616 713 780 766 783 788 780 772 730 795 883 910 1018 1017 1200 1403 1487 1509 1460 1429 1393 1311 1230 1151 1098 966 1208 1193 1124 981 1113 1154 924 1210 1708 1814 1939 1936
0 0 0 0 0 0 0 0 0 0 0 0 0 0 0 0 0 0 0 0 0 0 0 0 0 0 0 0 0 0 0 0 0 0 28 61 146 428 556 475 485 587 756 874 866 863 856 784 650 694 811 804 800 944 970 927 750 751 954 932 1042 1070 1115 1320 1459 1500 1432 1392 1365 1317 1194 1066 1018 971 1009 1320 1121 1005 971 1238 1108 1001 1450 1745 1883 1961
0 0 0 0 0 0 0 0 0 0 0 0 0 0 0 0 0 0 0 0 0 0 0 0 0 0 0 0 0 0 0 0 0 0 0 32 132 329 534 567 534 619 801 935 949 930 916 864 727 684 809 858 846 963 1036 1030 1000 897 958 979 1019 1129 1144 1252 1429 1464 1439 1363 1315 1283 1208 1043 959 1026 992 1169 1313 1045 902 1132 1255 1083 1205 1618 1818 1933
0 0 0 0 0 0 0 0 0 0 0 0 0 0 0 0 0 0 0 0 0 0 0 0 0 0 0 0 0 0 0 0 0 0 0 12 119 334 503 569 564 594 746 923 963 984 983 943 802 732 802 873 894 959 1080 1097 1122 1047 1007 1063 1026 1047 1201 1224 1387 1446 1420 1349 1254 1223 1191 1097 946 1048 1103 1021 1236 1330 1009 1046 1310 1359 1183 1572 1796 1923
0 0 0 0 0 0 0 0 0 0 0 0 0 0 0 0 0 0 0 0 0 0 0 0 0 0 0 0 0 0 0 0 0 0 0 5 64 242 500 563 578 663 743 900 986 990 1018 1013 899 833 875 904 936 966 1066 1141 1221 1211 1162 1190 1150 993 1130 1248 1352 1398 1410 1341 1237 1176 1142 1120 1000 1004 1156 1169 1122 1337 1376 1172 1209 1461 1489 1537 1826 1923
0 0 0 0 0 0 0 0 0 0 0 0 0 0 0 0 0 0 0 0 0 0 0 0 0 0 0 0 0 0 0 0 0 0 11 14 26 183 480 602 614 654 744 897 1006 1054 1061 1043 1008 947 958 978 994 1012 1077 1164 1273 1349 1328 1321 1309 1217 1174 1263 1370 1384 1353 1333 1274 1200 1155 1148 1135 1090 1163 1261 1249 1238 1521 1490 1348 1295 1609 1695 1872 1963
0 0 0 0 0 0 0 0 0 0 0 0 0 0 0 0 0 0 0 0 0 0 0 0 0 0 0 0 0 0 0 0 0 0 1 54 102 274 484 641 686 688 769 878 1017 1115 1118 1093 1055 1018 999 1039 1062 1092 1153 1215 1298 1419 1452 1454 1423 1387 1311 1323 1418 1493 1426 1325 1296 1253 1199 1182 1222 1215 1228 1331 1406 1390 1500 1668 1608 1461 1414 1728 1903 2087
0 0 0 0 0 0 0 0 0 0 0 0 0 0 0 0 0 0 0 0 0 0 0 0 0 0 0 0 0 0 0 0 0 0 4 146 302 390 562 717 762 747 779 882 989 1095 1150 1142 1110 1059 1027 1103 1140 1159 1212 1282 1360 1509 1588 1655 1568 1519 1464 1444 1468 1618 1584 1444 1354 1314 1285 1251 1254 1298 1313 1372 1484 1531 1552 1736 1798 1691 1526 1585 1992 2103
0 0 0 0 0 0 0 0 0 0 0 0 0 0 0 0 0 0 0 0 0 0 0 0 0 0 0 0 0 0 0 0 0 0 0 236 403 464 608 750 819 789 823 913 1000 1076 1137 1152 1133 1082 1059 1165 1263 1259 1330 1420 1488 1608 1711 1778 1754 1702 1637 1592 1574 1606 1680 1627 1486 1402 1382 1396 1381 1388 1394 1390 1442 1522 1562 1676 1932 1918 1771 1662 1909 2184
0 0 0 0 0 0 0 0 0 0 0 0 0 0 0 0 0 0 0 0 0 0 0 0 0 0 0 0 0 0 0 0 0 0 0 150 400 579 610 761 846 824 839 927 984 1068 1156 1169 1127 1086 1057 1132 1345 1394 1381 1479 1599 1704 1820 1892 1912 1864 1799 1764 1729 1691 1740 1770 1704 1574 1499 1495 1522 1522 1499 1462 1448 1455 1468 1530 1768 2077 2028 1864 1849 2209
0 0 0 0 0 0 0 0 0 0 0 0 0 0 0 0 0 0 0 0 0 0 0 0 0 0 0 0 0 0 0 0 0 0 0 110 311 434 606 732 823 834 867 929 953 1025 1135 1173 1151 1119 1084 1102 1320 1455 1482 1516 1643 1772 1922 2015 2058 2010 1973 1908 1868 1814 1799 1833 1841 1781 1666 1591 1612 1616 1591 1563 1526 1511 1466 1426 1447 1756 2187 2162 2038 2120
0 0 0 0 0 0 0 0 0 0 0 0 0 0 0 0 0 0 0 0 0 0 0 0 0 0 0 0 0 0 0 0 0 0 0 28 197 276 546 650 799 838 854 876 918 982 1087 1178 1198 1147 1124 1100 1246 1459 1514 1497 1567 1746 1957 2124 2184 2154 2114 2037 1996 1932 1876 1841 1858 1874 1833 1743 1669 1656 1666 1643 1635 1599 1573 1485 1402 1371 1742 2253 2329 2269
0 0 0 0 0 0 0 0 0 0 0 0 0 0 0 0 0 0 0 0 0 0 0 0 0 0 0 0 0 0 0 0 0 0 0 1 91 150 439 605 781 829 838 829 888 944 1018 1127 1217 1226 1168 1120 1177 1404 1542 1549 1561 1667 1847 2105 2300 2284 2225 2176 2122 2064 1981 1906 1873 1859 1874 1841 1759 1690 1675 1686 1689 1688 1653 1586 1501 1403 1396 1685 2229 2475
0 0 0 0 0 0 0 0 0 0 0 0 0 0 0 0 0 0 0 0 0 0 0 0 0 0 0 0 0 0 0 0 0 0 0 0 22 162 403 595 744 822 796 809 930 977 995 1063 1134 1211 1249 1239 1220 1303 1472 1576 1597 1654 1814 2023 2288 2429 2392 2297 2234 2192 2114 2024 1942 1875 1852 1827 1778 1730 1692 1678 1683 1721 1727 1688 1603 1516 1462 1443 1674 2203
0 0 0 0 0 0 0 0 0 0 0 0 0 0 0 0 0 0 0 0 0 0 0 0 0 0 0 0 0 0 0 0 0 0 0 0 31 253 418 556 683 748 765 801 924 1007 1011 1032 1062 1118 1218 1290 1304 1302 1376 1480 1536 1606 1842 2055 2234 2413 2528 2511 2438 2359 2289 2205 2089 1938 1857 1861 1806 1764 1722 1694 1684 1673 1706 1724 1712 1659 1583 1532 1521 1684
0 0 0 0 0 0 0 0 0 0 0 0 0 0 0 0 0 0 0 0 0 0 0 0 0 0 0 0 0 0 0 0 0 0 0 0 11 291 466 564 747 649 696 755 848 960 993 1019 1076 1117 1181 1236 1301 1340 1384 1448 1503 1665 1934 2175 2310 2430 2554 2639 2632 2554 2473 2382 2290 2174 2051 2027 1939 1869 1802 1749 1703 1654 1637 1686 1732 1751 1720 1647 1604 1604
0 0 0 0 0 0 0 0 0 0 0 0 0 0 0 0 0 0 0 0 0 0 0 0 0 0 0 0 0 0 0 28 16 61 64 0 6 247 430 547 618 615 643 700 778 882 929 969 1036 1074 1102 1144 1190 1288 1487 1651 1713 1830 2034 2266 2489 2622 2673 2709 2713 2685 2620 2544 2474 2385 2243 2235 2149 2055 1957 1875 1785 1709 1653 1635 1683 1755 1788 1768 1714 1681
0 0 0 0 0 0 0 14 7 0 0 0 0 0 0 0 0 0 0 0 0 0 0 0 0 0 0 0 0 0 0 11 93 430 390 15 8 425 446 502 627 673 656 654 706 754 804 920 1062 1096 1079 1093 1164 1265 1485 1760 1928 2030 2153 2260 2489 2783 2924 2943 2901 2825 2736 2666 2597 2531 2442 2328 2297 2236 2140 2044 1938 1829 1737 1658 1657 1705 1797 1870 1852 1787
0 0 0 0 0 0 2 16 15 0 0 0 0 0 0 0 0 0 0 0 0 0 0 0 0 0 0 0 0 0 341 0 451 534 486 65 44 313 489 531 595 678 670 630 620 648 711 902 1075 1141 1151 1169 1261 1365 1472 1690 1939 2115 2237 2333 2419 2693 3129 3179 3176 3067 2979 2861 2757 2681 2632 2542 2416 2377 2296 2203 2077 1964 1856 1757 1689 1703 1742 1836 1966 1950
0 0 0 0 8 9 6 18 13 10 0 0 0 0 0 1 0 0 0 0 0 0 0 0 0 0 0 0 207 498 539 597 592 522 440 183 263 385 490 514 566 617 651 655 658 649 712 855 1063 1220 1276 1294 1349 1444 1553 1663 1813 2006 2199 2325 2421 2483 2767 3415 3438 3330 3254 3170 3057 2951 2863 2818 2743 2627 2468 2348 2234 2100 1982 1876 1763 1715 1738 1755 1872 2044
3 0 0 0 21 18 11 15 15 2 0 0 0 0 0 7 4 0 0 300 420 119 0 0 0 0 0 0 284 447 595 626 610 596 533 460 446 431 462 478 500 547 604 660 650 716 772 851 1110 1318 1396 1418 1435 1500 1618 1747 1872 2023 2114 2204 2282 2406 2594 3188 3592 3621 3556 3468 3386 3276 3185 3166 3150 3094 2990 2810 2582 2305 2134 2004 1885 1768 1728 1749 1774 1918
8 0 0 0 17 16 18 16 23 1 10 4 5 1 2 12 416 446 573 463 642 746 754 262 0 75 0 0 420 896 1476 1920 1944 1855 1001 951 957 904 881 823 732 740 749 790 804 802 829 858 1032 1342 1495 1555 1565 1560 1619 1746 1930 2113 2294 2465 2584 2665 2724 2913 3422 3774 3794 3741 3675 3622 3569 3518 3478 3454 3389 3265 3071 2797 2446 2195 2028 1882 1796 1765 1739 1743
16 0 0 0 26 14 9 27 23 1 12 4 14 189 352 230 474 598 500 452 585 617 662 500 81 35 162 1420 2097 2230 2396 2609 2774 2934 3048 2864 2434 2348 2388 2271 1915 1697 1488 1524 1724 1934 2144 1914 1573 1530 1518 1600 1644 1694 1743 1861 2089 2221 2390 2630 2848 2916 2926 2932 3108 3516 3839 3907 3863 3826 3793 3763 3714 3659 3600 3513 3398 3202 2883 2479 2209 2048 1900 1836 1795 1747
35 1 0 0 13 5 9 9 13 4 3 15 21 292 176 0 30 452 416 572 514 586 700 613 204 1337 2104 2011 2055 2198 2372 2499 2658 2694 2706 2601 2449 2383 2434 2489 2555 2677 2786 2682 2594 3010 3213 2931 2731 2580 2460 2487 2881 2535 2274 2498 2708 2753 2783 2814 2965 3080 3116 3118 3085 3206 3602 3853 3946 3956 3926 3888 3842 3796 3736 3673 3584 3445 3233 2916 2478 2197 2052 1908 1841 1810
44 3 0 0 8 11 0 20 2 3 12 1 9 31 0 95 309 458 770 624 576 702 810 682 976 1883 2051 1905 1784 1933 2006 2181 2435 2586 2444 2312 2125 2149 2292 2376 2497 2665 2828 2907 2987 3130 3147 2968 2766 2643 2593 2713 2834 2981 2978 2955 3090 3228 3177 3164 3190 3212 3248 3252 3162 3232 3292 3664 3851 3916 3956 3946 3916 3877 3845 3783 3687 3551 3379 3176 2904 2488 2217 2085 1944 1840
39 15 4 2 4 16 4 9 9 3 5 2 3 2 141 285 586 329 503 500 597 697 935 957 1216 1498 1547 1684 1545 1553 1633 1909 2271 2504 2614 2389 2277 2187 2010 2264 2703 3150 3291 3310 3455 3672 3848 3830 3760 3706 3699 3707 3834 4002 3845 3402 3331 3437 3600 3604 3593 3528 3473 3446 3494 3488 3487 3459 3678 3846 3914 3958 3950 3932 3887 3828 3732 3616 3468 3299 3102 2846 2460 2277 2132 1983
37 17 14 1 8 4 5 1 0 12 0 0 0 107 324 555 506 436 629 514 606 877 1008 1154 1153 1210 1251 1177 1155 1335 1564 2003 2284 2528 2627 2468 2392 2507 2316 2155 2290 2924 3322 3503 3605 3699 3790 3877 3741 3531 3352 3234 3228 3483 4016 4591 4272 3603 3464 3512 3740 3724 3698 3658 3628 3584 3601 3588 3572 3633 3814 3916 3963 3944 3901 3835 3769 3648 3536 3402 3206 3002 2771 2517 2296 2168
42 9 18 6 8 8 2 5 7 0 0 4 0 198 308 479 552 365 676 556 570 975 1172 1153 1256 1296 1287 1408 1370 1492 1729 2002 2224 2335 2563 2443 2288 2377 2492 2487 2342 2192 2703 3422 3539 3534 3530 3444 3410 3425 3408 3345 3340 3658 4012 4285 4759 5125 4886 4686 3677 3402 3675 3739 3700 3674 3650 3651 3681 3668 3635 3781 3877 3907 3907 3858 3756 3658 3571 3451 3304 3119 2955 2764 2557 2364
40 6 15 18 3 16 7 5 0 0 0 0 0 1 76 337 360 501 509 643 694 992 1160 1218 1239 1258 1242 1236 1314 1438 1552 1876 2018 2160 2454 2388 2193 2194 2268 2401 2430 2241 2326 2761 3194 3380 3435 3434 3429 3340 3398 3441 3437 3704 3999 4237 4564 4720 4902 4756 4288 4412 3917 2672 2890 3081 3297 3403 3434 3458 3506 3520 3775 3862 3875 3858 3803 3697 3581 3497 3386 3242 3106 2962 2820 2668
32 12 1 9 4 17 13 0 14 1 0 0 0 2 9 206 224 448 648 568 747 976 1175 1128 1136 1190 1303 1296 1304 1414 1556 1726 1848 1839 2034 2284 2235 1990 1969 2016 2063 2094 2165 2411 2806 2626 2700 2843 3069 3062 3149 3160 3187 3404 3805 4345 4752 4987 4729 4470 4379 4598 4905 4569 4503 3019 2447 2815 3304 3315 3323 3421 3655 3808 3858 3856 3824 3754 3659 3553 3456 3355 3245 3123 3018 2909
29 14 3 6 4 5 17 4 0 20 0 0 0 7 3 11 203 365 372 439 683 917 1144 1052 992 1131 1231 1254 1325 1459 1523 1740 1821 1647 1594 1658 1748 1818 1780 1829 1909 1911 1950 2116 2331 2437 2407 2578 2942 3049 3038 3192 3195 3318 3355 3761 4168 4379 4443 4276 4346 4409 4439 4600 4810 4055 2845 2562 3422 3542 3434 3455 3632 3792 3870 3888 3858 3813 3738 3671 3645 3576 3476 3360 3339 3311
1 41 6 2 15 13 15 10 10 8 1 3 7 7 27 52 233 457 441 254 576 839 1135 1031 994 1026 1208 1300 1335 1346 1432 1495 1538 1599 1386 1616 1738 1768 1697 1626 1603 1676 1785 1916 2247 2449 2591 2692 2823 2888 2966 3203 3272 3256 3498 3480 3772 4002 4169 4080 4256 4498 4548 4619 4742 4760 3601 2698 3148 3667 3703 3733 3828 3872 3942 3953 3930 3882 3827 3867 3933 3914 3842 3782 3743 3682
4 28 37 14 4 28 23 49 11 6 5 21 4 26 40 51 182 302 280 326 462 554 964 1090 1071 1077 1170 1220 1303 1279 1153 1108 1131 1222 1062 812 855 1429 1720 1664 1640 1626 1601 1664 1934 2291 2493 2585 2572 2539 2608 2770 2966 3024 3360 3552 3646 3866 3966 3988 4223 4312 4518 4670 4970 5538 4516 3317 2825 3525 3822 3988 4137 4141 4143 4118 4061 4023 4002 4157 4212 4190 4156 4108 4035 3993
0 9 29 5 18 2 22 0 0 0 27 41 41 30 4 85 71 293 267 237 412 459 527 813 951 1087 1109 1040 1171 1133 976 828 644 855 692 660 655 681 1009 1316 1418 1509 1504 1492 1590 1932 2276 2424 2429 2367 2297 2289 2316 2646 2732 3256 3574 3608 3863 3889 4092 4256 4325 4599 4903 5484 4870 4062 3225 3493 3934 4126 4376 4441 4430 4429 4336 4268 4309 4470 4497 4416 4420 4354 4306 4249
0 3 0 11 1 9 6 0 0 0 0 0 0 0 0 7 62 94 155 154 63 338 406 253 487 686 840 867 987 944 825 688 550 636 695 708 656 725 838 909 1194 1373 1448 1524 1618 1932 2189 2341 2382 2333 2266 2249 2250 2255 2292 2327 3092 3521 3695 3881 3964 4157 4210 4496 4845 5252 5128 4541 3741 4026 4154 4216 4479 4686 4769 4820 4750 4663 4699 4752 4728 4670 4643 4608 4581 4530
1 0 0 0 0 1 2 0 0 0 0 0 0 0 0 24 50 73 163 197 278 218 138 328 391 341 431 606 737 666 608 489 438 567 674 742 791 822 911 1049 1110 1238 1397 1615 1854 2077 2136 2263 2302 2235 2132 2190 2161 2032 2023 2147 2201 2841 3468 3693 3878 4033 4133 4318 4723 5250 5293 4697 4531 4525 4420 4378 5415 5118 5123 5214 5160 5155 5142 5043 5063 4988 4916 4920 4901 4898
12 0 0 0 7 0 0 0 0 0 0 0 0 0 1 8 7 1 38 108 166 226 258 139 348 218 204 221 455 470 491 458 408 519 636 751 893 995 1048 1065 1068 1191 1397 1683 1821 1844 2052 2086 2179 2161 2091 2095 2098 1963 1832 1802 1807 1839 2400 3092 3519 3957 4138 4209 4558 4914 5237 5048 5146 4942 4718 4754 5264 5099 5195 5284 5304 5280 5308 5395 5425 5286 5240 5198 5211 5164
0 0 0 0 14 17 11 5 0 0 0 0 0 0 0 1 1 0 1 20 76 148 181 205 234 146 175 209 132 263 273 264 234 110 537 672 911 1090 1092 1056 992 1142 1302 1488 1575 1581 1681 1890 2202 1998 1955 2038 2095 1954 1857 1758 1639 1540 1539 1777 2569 3627 4194 4271 4507 4727 5069 5418 5514 5298 5139 5239 5164 5119 5200 5280 5306 5290 5280 5324 5398 5503 5469 5442 5327 5328
1 0 0 3 2 40 0 0 5 1 0 0 0 0 0 2 1 0 2 7 0 36 119 118 131 277 279 173 194 74 215 217 168 59 170 532 914 1076 1116 1091 1105 1094 1219 1669 1708 1619 1781 1898 2074 1959 2060 2022 1971 1908 1794 1632 1402 1296 1212 1776 2536 3539 4263 4364 4556 4608 4836 5106 5678 5590 5456 5404 5214 5220 5230 5270 5264 5203 5177 5130 5275 5486 5522 5494 5520 5460
Wind_Speed
nan nan nan nan nan nan nan nan nan nan nan nan nan nan nan nan nan nan nan nan nan nan nan nan nan nan nan nan 16 14 11 5 5 7 6 9 11 13 13 14 16 17 18 16 18 18 20 19 13 10 7 5 6 6 6 4 2 3 4 6 7 8 9 10 12 13 11 11 11 11 8 7 7 7 8 7 5 4 6 5 5 6 6 6 7 8
nan nan nan nan nan nan nan nan nan nan nan nan nan nan nan nan nan nan nan nan nan nan nan nan nan nan nan nan 19 16 11 5 7 10 10 13 14 14 16 16 16 15 11 14 15 16 18 18 16 11 7 5 5 3 6 5 2 3 4 6 9 10 9 10 12 13 13 13 11 10 9 9 8 7 6 7 6 5 5 5 5 5 5 6 7 7
nan nan nan nan nan nan nan nan nan nan nan nan nan nan nan nan nan nan nan nan nan nan nan nan nan nan nan nan 24 20 13 7 9 12 12 14 15 14 16 18 17 12 12 15 17 17 18 20 19 11 7 6 6 3 4 5 4 3 4 7 9 10 10 11 12 14 14 15 14 12 11 7 9 9 7 7 6 5 3 4 5 5 5 6 7 7
nan nan nan nan nan nan nan nan nan nan nan nan nan nan nan nan nan nan nan nan nan nan nan nan nan nan nan nan 28 22 15 11 12 12 10 11 14 15 17 19 19 16 16 17 18 19 18 19 18 12 8 7 5 2 4 5 4 4 5 6 8 9 10 12 12 13 15 15 15 14 10 9 6 6 7 6 7 5 4 3 4 5 4 6 7 7
nan nan nan nan nan nan nan nan nan nan nan nan nan nan nan nan nan nan nan nan nan nan nan nan nan nan nan nan nan 20 18 16 13 9 7 7 11 13 15 18 20 21 19 18 17 16 17 19 20 17 11 8 6 2 2 3 5 6 4 5 7 9 10 12 12 12 15 15 15 14 13 11 9 9 6 6 7 6 4 3 3 5 5 5 6 7
nan nan nan nan nan nan nan nan nan nan nan nan nan nan nan nan nan nan nan nan nan nan nan nan nan nan nan nan nan nan nan nan 16 12 7 6 7 9 14 18 18 17 19 20 19 18 18 19 17 15 12 10 6 3 2 3 4 7 7 7 8 10 10 11 10 11 12 11 9 9 8 6 7 6 6 3 3 3 2 3 3 3 4 5 6 7
nan nan nan nan nan nan nan nan nan nan nan nan nan nan nan nan nan nan nan nan nan nan nan nan nan nan nan nan nan nan nan nan nan 15 10 8 8 10 13 15 16 17 16 16 15 14 13 16 16 15 12 10 7 3 3 5 5 7 8 8 7 8 9 10 10 9 11 11 10 7 7 7 6 5 5 4 4 3 3 4 2 2 3 5 7 7
nan nan nan nan nan nan nan nan nan nan nan nan nan nan nan nan nan nan nan nan nan nan nan nan nan nan nan nan nan nan nan nan nan nan nan nan nan 11 11 13 15 16 17 16 16 16 15 17 18 18 15 10 7 4 5 5 5 7 9 10 8 8 8 9 9 8 9 9 10 10 10 10 8 3 3 3 4 5 5 4 2 3 3 5 7 6
nan nan nan nan nan nan nan nan nan nan nan nan nan nan nan nan nan nan nan nan nan nan nan nan nan nan nan nan nan nan nan nan nan nan 12 14 14 nan 13 13 14 16 17 16 15 16 17 17 18 16 13 11 8 5 4 5 6 6 8 10 9 8 8 8 7 7 8 10 10 10 10 9 7 4 4 4 4 5 5 3 3 2 3 5 6 6
nan nan nan nan nan nan nan nan nan nan nan nan nan nan nan nan nan nan nan nan nan nan nan nan nan nan nan nan nan nan nan nan nan nan 15 14 14 13 11 11 12 12 14 14 16 17 17 17 18 17 14 10 8 6 5 7 9 8 8 9 10 8 7 7 6 7 7 8 10 9 8 5 5 5 5 5 3 3 4 2 2 2 3 5 5 5
nan nan nan nan nan nan nan nan nan nan nan nan nan nan nan nan nan nan nan nan nan nan nan nan nan nan nan nan nan nan nan nan nan nan 14 13 12 12 9 11 12 12 14 14 13 13 16 15 16 15 14 11 8 7 7 8 9 9 8 8 9 8 7 7 6 6 6 7 8 7 5 2 2 3 3 4 3 2 3 2 2 3 4 3 4 3
nan nan nan nan nan nan nan nan nan nan nan nan nan nan nan nan nan nan nan nan nan nan nan nan nan nan nan nan nan nan nan nan nan nan nan 15 13 10 7 7 11 12 13 15 13 11 11 11 12 13 12 9 8 7 8 8 9 10 9 8 8 7 7 7 7 7 5 6 6 6 3 1 1 1 3 1 2 2 4 4 2 3 2 3 3 4
nan nan nan nan nan nan nan nan nan nan nan nan nan nan nan nan nan nan nan nan nan nan nan nan nan nan nan nan nan nan nan nan nan nan nan nan 15 13 10 9 9 10 12 14 12 9 9 11 12 14 12 8 7 6 8 8 9 10 10 10 9 7 7 7 8 7 5 5 5 4 2 1 2 2 2 1 2 2 3 3 2 0 3 2 3 5
nan nan nan nan nan nan nan nan nan nan nan nan nan nan nan nan nan nan nan nan nan nan nan nan nan nan nan nan nan nan nan nan nan nan nan nan 15 15 13 10 7 7 10 11 10 8 9 10 11 14 14 11 7 7 7 8 8 9 10 10 10 8 7 7 7 7 6 5 4 4 3 2 2 2 2 2 2 3 3 2 2 2 3 3 6 6
nan nan nan nan nan nan nan nan nan nan nan nan nan nan nan nan nan nan nan nan nan nan nan nan nan nan nan nan nan nan nan nan nan nan nan nan 13 14 13 12 8 6 8 8 7 6 8 10 12 13 14 12 9 7 6 6 7 9 9 9 9 9 7 7 7 7 6 6 5 5 3 2 3 4 3 2 3 3 2 2 2 2 1 2 3 4
nan nan nan nan nan nan nan nan nan nan nan nan nan nan nan nan nan nan nan nan nan nan nan nan nan nan nan nan nan nan nan nan nan nan nan nan 9 9 7 7 3 4 6 5 5 6 7 9 11 12 13 13 10 9 6 7 7 8 8 8 9 9 8 8 8 7 6 7 7 5 4 2 3 5 4 4 5 5 3 2 1 1 1 0 1 1
nan nan nan nan nan nan nan nan nan nan nan nan nan nan nan nan nan nan nan nan nan nan nan nan nan nan nan nan nan nan nan nan nan nan nan nan nan 13 9 7 5 1 6 6 6 7 8 9 11 12 14 12 10 8 8 7 7 9 10 9 8 9 10 8 8 8 8 8 7 5 4 5 5 4 2 2 3 3 4 3 2 1 0 1 2 2
nan nan nan nan nan nan nan nan nan nan nan nan nan nan nan nan nan nan nan nan nan nan nan nan nan nan nan nan nan nan nan nan nan nan nan nan nan 18 13 10 5 1 5 8 6 7 10 12 13 11 11 12 11 10 9 9 8 8 9 10 10 10 9 8 8 9 10 9 6 6 5 5 4 4 3 3 3 3 3 3 3 3 3 1 1 2
nan nan nan nan nan nan nan nan nan nan nan nan nan nan nan nan nan nan nan nan nan nan nan nan nan nan nan nan nan nan nan nan nan nan nan nan 27 24 16 12 8 5 3 5 4 5 7 8 9 9 10 12 12 11 10 9 9 7 8 8 10 10 9 9 9 10 12 10 10 9 7 6 6 7 6 5 5 5 5 3 3 2 1 1 2 2
nan nan nan nan nan nan nan nan nan nan nan nan nan nan nan nan nan nan nan nan nan nan nan nan nan nan nan nan nan nan nan nan nan nan nan 31 30 27 20 13 9 3 1 3 4 6 10 11 10 8 9 12 13 11 8 9 8 7 7 8 7 9 10 10 9 10 10 9 9 9 9 9 8 7 7 7 6 6 6 5 3 3 2 2 1 2
nan nan nan nan nan nan nan nan nan nan nan nan nan nan nan nan nan nan nan nan nan nan nan nan nan nan nan nan nan nan nan nan nan nan nan 30 28 29 22 13 8 5 2 4 5 7 10 11 9 7 7 9 11 9 6 7 8 7 6 6 7 10 10 9 7 7 7 9 8 8 7 6 6 5 7 8 9 8 8 6 5 4 4 2 1 1
nan nan nan nan nan nan nan nan nan nan nan nan nan nan nan nan nan nan nan nan nan nan nan nan nan nan nan nan nan nan nan nan nan nan nan 22 26 25 17 13 9 5 2 4 6 7 10 10 9 9 8 10 11 8 5 5 5 5 5 5 7 9 9 7 5 4 6 7 6 5 5 6 7 6 6 6 7 7 8 7 6 5 4 3 2 2
nan nan nan nan nan nan nan nan nan nan nan nan nan nan nan nan nan nan nan nan nan nan nan nan nan nan nan nan nan nan nan nan nan nan nan 17 20 16 10 8 9 8 6 5 6 7 10 10 9 9 8 8 9 6 4 4 3 3 3 4 6 7 7 5 3 4 5 5 5 4 5 6 6 6 5 4 5 5 6 7 7 6 3 2 1 2
nan nan nan nan nan nan nan nan nan nan nan nan nan nan nan nan nan nan nan nan nan nan nan nan nan nan nan nan nan nan nan nan nan nan nan nan 15 10 7 9 9 6 5 7 6 7 9 8 9 10 8 7 7 6 4 2 1 1 1 3 5 5 6 4 4 5 5 6 6 5 5 5 5 4 4 4 4 4 5 6 6 5 3 2 1 4
nan nan nan nan nan nan nan nan nan nan nan nan nan nan nan nan nan nan nan nan nan nan nan nan nan nan nan nan nan nan nan nan nan nan nan nan nan 9 8 8 8 9 8 6 5 6 8 9 9 7 5 5 5 5 4 1 2 3 2 1 3 4 5 5 5 5 5 5 3 4 4 4 4 4 3 3 4 4 5 5 5 4 3 2 3 4
nan nan nan nan nan nan nan nan nan nan nan nan nan nan nan nan nan nan nan nan nan nan nan nan nan nan nan nan nan nan nan nan nan nan nan nan nan 12 10 9 8 8 8 6 5 9 10 9 7 7 5 5 6 6 4 3 4 4 2 2 2 3 5 4 6 6 6 5 4 4 3 3 3 4 4 4 4 4 4 4 5 4 3 3 3 3
nan nan nan nan nan nan nan nan nan nan nan nan nan nan nan nan nan nan nan nan nan nan nan nan nan nan nan nan nan nan nan nan nan nan nan nan nan 15 13 10 7 6 5 5 5 8 11 13 11 7 5 5 6 5 5 5 5 4 2 3 3 3 5 5 5 5 5 5 4 5 4 5 5 5 5 4 4 4 3 4 4 4 3 2 3 4
nan nan nan nan nan nan nan nan nan nan nan nan nan nan nan nan nan nan nan nan nan nan nan nan nan nan nan nan nan nan nan nan nan nan nan nan nan 14 13 12 10 5 4 4 4 7 10 13 14 11 8 8 6 6 7 6 4 2 2 5 4 4 5 6 5 4 4 4 5 5 4 5 5 5 4 4 3 3 3 3 3 3 2 2 3 4
nan nan nan nan nan nan nan nan nan nan nan nan nan nan nan nan nan nan nan nan nan nan nan nan nan nan nan nan nan nan nan nan nan nan nan nan nan 14 13 11 9 6 2 0 2 6 7 12 16 14 11 9 8 8 7 5 3 2 1 2 3 4 3 6 5 5 4 4 3 3 4 6 6 4 3 1 2 3 3 3 2 1 2 2 2 1
nan nan nan nan nan nan nan nan nan nan nan nan nan nan nan nan nan nan nan nan nan nan nan nan nan nan nan nan nan nan nan nan nan 24 25 nan nan 15 14 12 11 6 2 5 5 3 6 11 15 16 13 12 9 9 9 6 3 2 4 3 1 1 4 5 4 4 3 3 2 3 5 5 5 3 1 1 1 1 1 1 1 1 2 1 1 1
nan nan nan nan nan nan nan nan nan nan nan nan nan nan nan nan nan nan nan nan nan nan nan nan nan nan nan nan nan nan 34 nan 33 30 27 nan nan 17 14 12 12 6 3 8 6 5 11 12 14 16 12 8 7 7 7 5 2 2 3 4 4 3 3 2 3 4 5 6 4 4 5 6 4 3 2 2 2 2 2 2 2 1 1 1 1 3
nan nan nan nan nan nan nan nan nan nan nan nan nan nan nan nan nan nan nan nan nan nan nan nan nan nan nan nan 43 43 43 43 38 35 34 29 24 19 16 15 12 6 2 6 6 9 12 13 15 13 7 4 4 6 7 5 3 3 4 4 5 4 3 3 3 4 6 6 4 3 3 5 5 3 2 3 3 3 3 3 3 2 2 2 2 2
nan nan nan nan nan nan nan nan nan nan nan nan nan nan nan nan nan nan nan 50 42 28 nan nan nan nan nan nan 43 47 49 47 45 39 38 38 30 23 19 16 13 7 2 4 8 10 11 11 11 10 9 9 7 6 5 6 5 3 3 2 2 1 2 3 3 3 4 4 3 3 1 1 2 3 3 4 4 4 5 4 3 2 2 2 1 2
nan nan nan nan nan nan nan nan nan nan nan nan nan nan nan nan 47 58 59 52 48 43 26 23 nan nan nan nan 43 45 52 44 41 41 38 35 33 29 25 22 21 21 18 16 13 12 16 19 19 17 14 12 10 8 11 11 7 7 7 6 5 2 1 2 2 1 2 2 3 3 2 2 3 3 4 5 5 5 5 5 3 3 3 4 4 1
nan nan nan nan nan nan nan nan nan nan nan nan nan 62 66 56 50 50 69 68 55 54 47 41 nan nan 34 38 42 44 46 47 51 51 47 40 35 33 32 31 30 29 27 26 27 27 27 26 27 26 24 21 18 18 19 17 15 15 14 12 10 7 6 4 4 3 2 1 2 4 4 4 4 4 5 6 7 7 5 5 4 5 6 6 3 2
nan nan nan nan nan nan nan nan nan nan nan nan nan 66 73 nan nan 60 65 63 58 53 48 42 47 42 38 40 42 41 49 52 53 48 44 40 36 35 36 33 32 33 31 28 28 27 27 28 28 28 26 26 25 24 21 21 20 19 15 15 13 11 10 9 7 6 5 3 3 5 6 7 7 6 7 8 8 8 7 5 5 5 8 8 7 7
nan nan nan nan nan nan nan nan nan nan nan nan nan nan nan nan 57 57 56 58 60 56 53 50 50 51 44 41 40 39 48 54 50 43 39 38 37 37 36 33 33 31 29 28 28 26 25 26 28 28 29 31 31 30 27 25 24 22 20 18 16 14 12 10 8 7 6 5 5 6 8 9 10 9 10 10 10 9 8 7 6 7 11 10 8 8
nan nan nan nan nan nan nan nan nan nan nan nan nan nan 59 51 55 55 54 58 65 62 57 55 53 48 52 47 40 39 52 53 46 40 37 37 37 37 37 36 34 33 30 29 28 29 28 27 27 27 28 29 33 32 32 30 25 22 20 16 16 15 13 10 8 7 7 7 6 7 9 11 12 12 12 12 11 10 8 8 10 10 12 10 9 8
nan nan nan nan nan nan nan nan nan nan nan nan nan 68 69 66 58 53 52 63 64 65 61 57 56 55 51 51 52 40 52 47 41 39 36 38 40 39 39 38 37 35 32 30 30 29 28 27 26 26 28 30 31 29 29 29 29 26 23 20 16 12 9 8 8 8 8 9 9 8 9 11 12 13 14 14 13 12 10 9 11 12 13 12 11 9
nan nan nan nan nan nan nan nan nan nan nan nan nan 70 71 70 65 51 57 59 64 66 65 61 63 63 60 59 55 62 55 48 43 42 40 43 44 44 43 41 41 39 35 32 31 27 27 28 31 31 30 29 27 25 27 27 27 27 27 26 23 19 15 11 10 11 12 12 11 10 10 11 12 12 13 15 15 14 12 10 13 14 13 12 12 13
nan nan nan nan nan nan nan nan nan nan nan nan nan nan nan 68 61 62 59 58 63 66 68 65 66 66 64 65 65 64 60 54 49 47 48 47 50 49 45 43 42 41 39 37 34 30 30 30 30 29 28 26 27 28 29 29 29 29 28 27 27 25 22 20 18 17 15 14 13 12 11 12 12 12 12 14 16 16 14 12 11 13 13 13 14 14
nan nan nan nan nan nan nan nan nan nan nan nan nan nan nan 63 67 64 62 61 65 71 70 68 67 66 67 68 64 62 60 58 54 53 53 52 50 48 46 45 45 45 42 39 39 36 33 32 31 31 32 31 32 33 33 32 33 31 31 31 31 29 26 25 22 19 18 17 16 14 13 13 14 14 13 14 16 16 15 14 12 12 12 14 15 14
nan nan nan nan nan nan nan nan nan nan nan nan nan nan nan nan 65 69 67 66 68 75 74 71 69 67 67 67 65 61 60 59 57 55 54 52 52 51 47 44 43 43 42 41 42 40 38 36 34 33 30 30 32 33 34 35 35 32 31 33 31 30 29 28 26 21 19 18 18 17 15 15 16 17 17 15 16 17 17 17 15 14 14 13 14 13
nan nan nan nan nan nan nan nan nan nan nan nan nan nan nan nan 62 70 71 66 68 77 76 72 72 69 68 67 65 62 62 60 57 55 52 52 51 49 47 43 41 40 40 39 39 37 36 34 32 30 29 29 30 31 32 33 34 33 32 32 30 30 30 29 28 24 22 21 20 20 19 19 19 19 19 17 18 17 18 19 17 16 16 15 14 14
nan nan nan nan nan nan nan nan nan nan nan nan nan nan nan nan 71 75 77 66 65 78 79 74 74 72 70 68 66 64 65 64 60 56 53 51 50 48 46 43 41 41 39 38 39 38 36 34 31 29 29 29 30 30 29 30 32 32 34 32 30 31 31 30 30 26 23 23 23 23 23 23 23 22 22 22 22 20 20 21 21 19 18 17 15 14
nan nan nan nan nan nan nan nan nan nan nan nan nan nan nan nan nan 77 80 68 64 77 84 79 76 75 73 71 67 65 66 63 63 61 57 54 54 52 50 49 47 45 43 42 42 41 39 38 37 35 33 32 31 30 29 29 30 31 28 29 31 31 31 30 29 27 24 24 24 24 26 26 26 25 25 27 27 25 24 23 22 21 21 20 18 17
nan nan nan nan nan nan nan nan nan nan nan nan nan nan nan nan nan nan 78 66 nan 73 86 85 80 78 76 75 72 67 66 64 62 62 59 55 56 55 54 53 50 48 48 49 48 47 46 44 42 40 37 36 33 32 31 31 29 27 27 29 30 31 31 30 29 28 26 23 24 25 25 26 27 29 32 32 33 31 28 26 24 24 25 24 23 22
nan nan nan nan nan nan nan nan nan nan nan nan nan nan nan nan nan nan 77 64 54 65 74 79 79 80 77 77 75 71 67 65 64 62 60 57 56 55 52 52 49 47 46 48 51 51 50 49 46 43 40 38 36 33 33 32 31 29 29 30 30 30 31 30 29 28 25 23 23 23 24 25 27 30 33 36 37 36 33 31 29 27 27 27 28 27
nan nan nan nan nan nan nan nan nan nan nan nan nan nan nan nan nan nan nan 73 64 62 69 70 71 74 76 76 74 72 69 66 65 63 60 58 57 57 53 49 45 40 39 45 49 51 49 48 47 44 43 40 38 36 34 33 32 31 31 31 30 30 30 30 29 29 27 25 25 25 26 27 29 32 35 37 41 42 38 35 35 33 34 36 34 30
nan nan nan nan nan nan nan nan nan nan nan nan nan nan nan nan nan nan nan nan nan 71 67 66 66 67 71 74 74 71 67 62 63 61 61 59 59 57 54 48 45 41 39 40 45 47 47 47 47 46 44 41 39 38 36 34 33 32 31 31 30 30 30 29 29 29 30 29 28 29 30 32 34 34 35 36 36 38 40 44 46 42 37 35 39 41
nan nan nan nan nan nan nan nan nan nan nan nan nan nan nan nan nan nan nan nan nan nan 73 67 65 67 68 68 68 nan 65 61 60 nan 62 62 61 58 55 49 46 44 42 42 45 46 45 45 45 47 47 44 41 41 39 36 34 33 32 31 30 30 29 28 28 28 30 30 31 30 32 34 35 34 35 35 36 37 39 40 44 50 50 45 46 50
Wind_Direction
nan nan nan nan nan nan nan nan nan nan nan nan nan nan nan nan nan nan nan nan nan nan nan nan nan nan nan nan 296 309 303 285 305 321 341 340 332 335 334 351 3 11 17 15 13 5 360 359 353 343 342 354 327 295 259 245 194 175 158 178 193 190 182 178 180 179 180 179 175 172 159 152 152 145 128 126 136 115 105 93 86 82 81 75 67 73
nan nan nan nan nan nan nan nan nan nan nan nan nan nan nan nan nan nan nan nan nan nan nan nan nan nan nan nan 302 305 305 314 339 340 353 340 335 330 334 343 358 11 11 8 14 13 4 360 358 344 337 343 342 316 270 269 242 187 173 168 191 193 183 177 175 177 176 177 175 177 167 171 161 149 133 125 142 124 117 104 93 90 84 65 60 61
nan nan nan nan nan nan nan nan nan nan nan nan nan nan nan nan nan nan nan nan nan nan nan nan nan nan nan nan 306 307 311 297 320 338 353 339 331 325 327 335 346 355 6 9 14 12 8 3 359 352 339 340 348 331 268 260 255 223 184 174 190 193 188 183 182 181 177 179 180 180 176 171 167 151 144 137 158 156 134 113 102 94 81 61 63 57
nan nan nan nan nan nan nan nan nan nan nan nan nan nan nan nan nan nan nan nan nan nan nan nan nan nan nan nan 307 307 300 279 306 329 339 330 328 327 327 327 335 352 0 9 12 12 10 4 1 357 340 335 317 272 224 252 284 230 201 185 192 198 195 190 188 185 182 183 183 182 181 175 167 145 154 154 166 184 165 119 112 110 85 64 58 55
nan nan nan nan nan nan nan nan nan nan nan nan nan nan nan nan nan nan nan nan nan nan nan nan nan nan nan nan nan 310 302 281 285 298 304 316 330 326 316 321 334 346 353 1 10 13 12 8 4 1 347 328 322 283 225 251 264 223 244 212 204 207 203 197 198 195 193 193 190 186 185 181 179 176 175 182 151 177 169 158 125 93 90 68 62 56
nan nan nan nan nan nan nan nan nan nan nan nan nan nan nan nan nan nan nan nan nan nan nan nan nan nan nan nan nan nan nan nan 279 295 318 323 318 304 304 319 330 340 342 351 4 11 12 12 3 1 351 339 334 311 222 219 250 248 241 236 221 211 209 206 207 206 199 190 186 184 184 173 165 166 178 151 100 150 143 100 122 108 82 73 71 63
nan nan nan nan nan nan nan nan nan nan nan nan nan nan nan nan nan nan nan nan nan nan nan nan nan nan nan nan nan nan nan nan nan 302 328 319 301 304 309 313 317 327 335 344 358 8 8 10 5 3 358 342 336 322 244 218 234 259 260 259 252 230 218 214 210 211 198 189 174 166 171 178 187 190 160 146 127 127 155 177 136 114 98 72 62 66
nan nan nan nan nan nan nan nan nan nan nan nan nan nan nan nan nan nan nan nan nan nan nan nan nan nan nan nan nan nan nan nan nan nan nan nan nan 306 307 310 313 323 332 334 349 4 9 5 3 5 2 343 334 288 250 236 238 267 277 279 274 244 236 218 213 207 196 188 179 177 180 185 189 177 120 106 123 166 186 180 156 157 105 78 73 63
nan nan nan nan nan nan nan nan nan nan nan nan nan nan nan nan nan nan nan nan nan nan nan nan nan nan nan nan nan nan nan nan nan nan 317 311 310 nan 313 314 317 323 328 332 337 356 6 4 3 0 0 353 327 288 261 244 245 254 269 284 280 271 257 235 229 210 195 191 190 187 188 188 177 150 128 141 156 164 186 185 170 127 89 83 80 72
nan nan nan nan nan nan nan nan nan nan nan nan nan nan nan nan nan nan nan nan nan nan nan nan nan nan nan nan nan nan nan nan nan nan 325 317 315 313 316 318 317 310 308 321 337 347 1 2 358 358 360 349 335 299 260 245 245 248 254 281 296 289 261 249 243 221 207 203 203 197 190 181 171 155 161 170 156 146 182 166 106 92 84 82 82 75
nan nan nan nan nan nan nan nan nan nan nan nan nan nan nan nan nan nan nan nan nan nan nan nan nan nan nan nan nan nan nan nan nan nan 300 304 310 319 324 320 308 302 302 308 324 340 354 354 352 351 359 2 331 296 283 261 258 259 267 286 306 307 275 264 262 244 227 214 212 206 200 162 132 153 182 178 156 158 136 116 93 69 71 74 59 47
nan nan nan nan nan nan nan nan nan nan nan nan nan nan nan nan nan nan nan nan nan nan nan nan nan nan nan nan nan nan nan nan nan nan nan 308 314 320 319 316 318 312 303 307 311 327 340 332 342 349 2 355 334 311 300 272 261 266 272 283 306 304 294 272 266 258 241 223 219 214 223 153 114 205 195 134 93 72 63 69 71 87 91 72 47 35
nan nan nan nan nan nan nan nan nan nan nan nan nan nan nan nan nan nan nan nan nan nan nan nan nan nan nan nan nan nan nan nan nan nan nan nan 320 326 328 330 320 307 294 292 303 316 331 342 343 348 353 344 327 324 320 299 275 267 273 291 302 312 309 291 273 271 261 236 225 229 245 216 207 228 214 162 96 95 83 89 104 313 52 44 32 36
nan nan nan nan nan nan nan nan nan nan nan nan nan nan nan nan nan nan nan nan nan nan nan nan nan nan nan nan nan nan nan nan nan nan nan nan 323 329 333 332 324 284 276 289 304 321 336 344 344 342 344 345 327 329 324 302 279 262 265 286 301 310 305 294 282 278 268 259 237 232 242 243 243 252 238 192 123 103 117 125 78 48 25 20 29 20
nan nan nan nan nan nan nan nan nan nan nan nan nan nan nan nan nan nan nan nan nan nan nan nan nan nan nan nan nan nan nan nan nan nan nan nan 325 329 345 354 349 288 269 277 290 323 340 342 338 332 339 345 336 327 320 296 287 272 270 281 296 292 295 294 293 268 271 252 242 227 228 233 231 243 231 196 168 137 130 158 113 111 186 9 23 20
nan nan nan nan nan nan nan nan nan nan nan nan nan nan nan nan nan nan nan nan nan nan nan nan nan nan nan nan nan nan nan nan nan nan nan nan 305 315 315 354 357 260 274 290 301 326 343 332 327 325 332 342 340 329 317 315 294 286 282 286 295 294 285 278 274 263 258 246 233 228 223 218 228 221 212 193 187 173 163 181 181 147 171 40 346 350
nan nan nan nan nan nan nan nan nan nan nan nan nan nan nan nan nan nan nan nan nan nan nan nan nan nan nan nan nan nan nan nan nan nan nan nan nan 304 304 346 37 231 285 300 297 310 332 321 324 327 330 334 338 333 331 322 311 310 291 283 288 281 270 271 269 265 250 239 228 219 207 201 200 203 204 184 168 169 173 175 178 213 121 202 233 274
nan nan nan nan nan nan nan nan nan nan nan nan nan nan nan nan nan nan nan nan nan nan nan nan nan nan nan nan nan nan nan nan nan nan nan nan nan 301 308 332 8 89 301 316 321 329 333 329 331 326 322 330 338 339 335 332 320 304 288 289 294 288 292 281 269 260 250 241 218 204 195 186 184 179 169 172 152 151 166 160 167 194 217 206 247 288
nan nan nan nan nan nan nan nan nan nan nan nan nan nan nan nan nan nan nan nan nan nan nan nan nan nan nan nan nan nan nan nan nan nan nan nan 284 294 304 322 342 23 355 312 308 303 313 316 320 321 320 327 330 330 336 333 314 286 269 276 293 305 302 289 260 248 242 240 212 196 188 184 181 175 170 160 148 149 139 136 153 152 111 224 247 284
nan nan nan nan nan nan nan nan nan nan nan nan nan nan nan nan nan nan nan nan nan nan nan nan nan nan nan nan nan nan nan nan nan nan nan 280 286 289 297 306 316 333 235 272 293 308 318 325 325 319 308 316 322 323 327 327 308 303 281 274 284 290 285 282 277 258 251 244 223 203 196 188 183 177 169 157 151 145 138 137 134 116 119 53 299 320
nan nan nan nan nan nan nan nan nan nan nan nan nan nan nan nan nan nan nan nan nan nan nan nan nan nan nan nan nan nan nan nan nan nan nan 276 283 289 302 320 325 316 247 254 285 297 314 318 308 286 280 298 300 297 309 327 326 312 279 279 288 293 296 299 292 271 253 244 229 213 198 188 185 169 169 159 153 149 146 143 129 114 99 137 76 335
nan nan nan nan nan nan nan nan nan nan nan nan nan nan nan nan nan nan nan nan nan nan nan nan nan nan nan nan nan nan nan nan nan nan nan 279 283 286 306 335 322 299 271 268 281 298 306 307 288 262 248 254 272 285 324 333 323 312 306 292 284 282 287 299 282 251 238 228 222 209 189 179 177 170 174 161 158 153 145 138 134 124 136 99 71 348
nan nan nan nan nan nan nan nan nan nan nan nan nan nan nan nan nan nan nan nan nan nan nan nan nan nan nan nan nan nan nan nan nan nan nan 269 282 292 313 316 303 314 315 291 284 291 303 296 276 262 261 274 296 303 309 297 318 333 330 295 276 281 291 293 279 237 223 208 197 181 175 176 173 178 170 160 169 149 134 131 130 141 123 94 58 347
nan nan nan nan nan nan nan nan nan nan nan nan nan nan nan nan nan nan nan nan nan nan nan nan nan nan nan nan nan nan nan nan nan nan nan nan 281 306 306 287 292 290 292 280 278 287 289 273 251 239 238 251 264 259 280 288 337 22 320 293 268 283 282 266 222 210 210 200 186 178 176 169 175 181 178 169 168 129 114 118 121 127 108 68 351 342
nan nan nan nan nan nan nan nan nan nan nan nan nan nan nan nan nan nan nan nan nan nan nan nan nan nan nan nan nan nan nan nan nan nan nan nan nan 294 282 289 291 300 289 264 254 261 250 236 232 233 250 262 266 263 267 272 99 75 34 284 264 259 265 249 214 190 186 200 195 180 168 155 170 165 156 143 152 103 96 93 95 99 65 28 358 341
nan nan nan nan nan nan nan nan nan nan nan nan nan nan nan nan nan nan nan nan nan nan nan nan nan nan nan nan nan nan nan nan nan nan nan nan nan 294 290 294 298 298 290 277 239 222 224 227 233 236 244 243 249 254 238 161 121 86 57 6 271 256 252 240 210 184 183 191 190 177 149 130 133 126 123 122 124 101 91 82 74 64 56 21 8 341
nan nan nan nan nan nan nan nan nan nan nan nan nan nan nan nan nan nan nan nan nan nan nan nan nan nan nan nan nan nan nan nan nan nan nan nan nan 302 299 298 289 278 282 288 245 225 219 226 250 253 253 262 263 234 193 160 121 88 26 335 325 270 255 240 218 199 187 190 195 192 164 146 142 150 143 138 128 126 112 85 74 60 49 23 19 2
nan nan nan nan nan nan nan nan nan nan nan nan nan nan nan nan nan nan nan nan nan nan nan nan nan nan nan nan nan nan nan nan nan nan nan nan nan 300 304 307 308 288 247 226 245 263 239 233 241 235 225 238 234 202 184 166 135 85 357 336 308 268 249 226 226 213 196 200 203 198 177 164 166 167 161 156 133 99 85 80 77 67 57 29 29 24
nan nan nan nan nan nan nan nan nan nan nan nan nan nan nan nan nan nan nan nan nan nan nan nan nan nan nan nan nan nan nan nan nan nan nan nan nan 296 294 302 308 313 294 171 321 293 245 219 219 218 216 224 219 201 200 192 167 150 86 305 273 246 235 226 215 207 201 200 196 193 202 197 187 181 174 124 82 73 70 68 71 60 56 46 46 29
nan nan nan nan nan nan nan nan nan nan nan nan nan nan nan nan nan nan nan nan nan nan nan nan nan nan nan nan nan nan nan nan nan 235 233 nan nan 289 302 304 309 311 34 72 37 334 203 202 209 211 216 216 210 205 210 205 177 77 41 24 5 188 208 220 201 193 166 124 131 200 217 211 200 197 224 325 24 26 27 54 28 14 35 37 30 17
nan nan nan nan nan nan nan nan nan nan nan nan nan nan nan nan nan nan nan nan nan nan nan nan nan nan nan nan nan nan 218 nan 219 232 247 nan nan 279 289 287 283 294 57 79 87 150 185 195 203 209 215 221 215 218 219 207 152 99 61 54 68 110 155 168 159 135 111 104 140 188 209 212 208 226 283 322 304 297 317 330 282 292 349 0 359 13
nan nan nan nan nan nan nan nan nan nan nan nan nan nan nan nan nan nan nan nan nan nan nan nan nan nan nan nan 213 217 223 225 225 232 240 247 261 263 284 282 271 280 70 99 126 168 183 197 207 206 208 214 226 233 223 212 186 156 88 72 78 101 154 116 107 105 110 109 133 162 195 209 223 245 293 299 320 312 289 266 272 279 305 346 11 0
nan nan nan nan nan nan nan nan nan nan nan nan nan nan nan nan nan nan nan 206 195 192 nan nan nan nan nan nan 224 219 225 225 224 223 237 240 245 265 274 279 271 257 229 156 163 165 173 193 203 207 207 208 208 213 216 231 222 170 142 128 119 169 106 79 64 77 85 74 67 69 81 225 265 303 317 327 320 297 278 277 271 274 291 359 333 256
nan nan nan nan nan nan nan nan nan nan nan nan nan nan nan nan 217 211 202 194 191 195 189 185 nan nan nan nan 231 228 229 223 225 224 223 236 241 235 234 237 235 225 214 200 192 184 184 185 190 192 199 202 198 196 204 210 207 197 202 204 207 204 115 102 97 69 48 34 19 9 348 330 333 332 330 315 307 298 300 295 290 265 249 240 241 239
nan nan nan nan nan nan nan nan nan nan nan nan nan 194 194 197 212 216 204 194 184 184 187 197 nan nan 211 233 239 237 239 235 229 225 225 226 234 235 233 232 230 227 219 211 202 195 192 190 193 195 194 194 196 197 198 194 192 200 203 204 202 200 192 171 171 207 254 315 319 309 306 306 306 304 294 296 296 297 307 308 272 255 244 246 254 250
nan nan nan nan nan nan nan nan nan nan nan nan nan 191 190 nan nan 195 201 190 185 184 188 197 201 206 218 226 235 235 240 241 234 227 224 223 223 228 230 230 231 231 226 216 214 204 201 198 199 200 196 197 199 197 194 194 199 206 205 207 205 200 194 190 183 193 225 262 287 295 295 299 296 293 290 292 290 297 306 300 285 263 243 236 226 218
nan nan nan nan nan nan nan nan nan nan nan nan nan nan nan nan 180 184 194 189 182 181 192 198 204 204 205 213 224 232 238 236 232 225 219 218 218 222 227 228 230 231 231 226 226 223 214 209 208 205 204 205 205 203 198 197 203 207 207 208 206 203 198 193 182 186 214 236 268 284 294 298 301 301 301 297 299 306 301 284 267 244 236 232 228 227
nan nan nan nan nan nan nan nan nan nan nan nan nan nan 175 180 175 173 184 190 181 184 194 203 204 203 203 191 196 214 235 232 223 220 213 215 215 222 225 227 228 227 227 229 229 227 223 220 219 213 211 212 211 207 202 202 208 209 211 211 207 206 197 189 179 194 211 226 251 272 285 294 301 304 304 302 311 311 290 266 246 245 241 236 233 228
nan nan nan nan nan nan nan nan nan nan nan nan nan 166 167 175 175 175 185 191 182 185 193 199 200 196 198 195 189 198 230 227 222 216 212 216 218 220 226 226 227 227 226 226 227 227 223 224 226 224 218 214 210 203 203 205 208 211 208 204 206 212 202 183 190 212 213 222 238 256 273 284 296 303 308 313 316 310 300 272 250 243 242 232 228 225
nan nan nan nan nan nan nan nan nan nan nan nan nan 165 168 170 174 181 190 189 182 184 190 197 199 192 193 195 199 208 215 227 219 217 215 218 222 222 225 226 226 225 224 223 224 226 226 227 227 223 219 215 208 204 206 206 209 209 206 204 205 203 196 197 213 226 225 231 238 242 256 268 284 294 305 313 311 310 308 278 248 242 244 236 229 227
nan nan nan nan nan nan nan nan nan nan nan nan nan nan nan 169 182 194 195 191 184 186 191 197 201 200 199 204 203 212 207 211 214 217 219 221 225 226 226 228 229 227 224 219 219 221 225 227 229 226 220 215 209 207 206 205 208 207 205 206 210 206 203 205 215 222 226 237 249 253 253 253 266 285 293 299 304 307 308 294 271 253 248 243 235 233
nan nan nan nan nan nan nan nan nan nan nan nan nan nan nan 182 190 194 193 191 184 188 193 198 203 205 207 210 210 211 211 212 211 215 220 223 228 231 230 230 229 226 223 218 216 218 222 224 223 221 214 209 210 209 208 207 208 206 205 208 206 200 200 204 211 224 233 233 240 249 254 255 254 263 271 282 290 297 301 296 286 267 260 249 244 246
nan nan nan nan nan nan nan nan nan nan nan nan nan nan nan nan 188 185 191 197 189 190 194 199 202 206 207 212 213 212 212 213 213 213 216 218 222 226 226 226 227 226 223 218 216 215 218 220 219 216 211 208 207 207 209 210 210 207 206 206 199 195 197 200 203 216 225 233 236 236 240 242 253 253 252 263 279 291 297 292 288 279 270 264 257 255
nan nan nan nan nan nan nan nan nan nan nan nan nan nan nan nan 188 186 190 199 192 191 195 199 202 205 206 211 213 210 210 213 214 216 217 217 218 221 221 222 224 224 224 224 223 222 223 225 223 218 211 208 207 209 211 212 209 206 205 202 197 196 197 199 200 209 218 221 228 233 231 233 239 244 247 259 267 277 284 286 284 279 276 275 270 264
nan nan nan nan nan nan nan nan nan nan nan nan nan nan nan nan 189 188 192 197 190 188 193 199 201 203 206 209 214 212 211 211 214 215 217 216 218 220 220 221 223 223 224 224 223 224 226 229 229 224 217 214 213 214 215 216 213 207 202 196 198 198 198 198 201 209 218 220 223 226 227 229 232 236 241 246 254 260 266 272 276 275 271 272 271 269
nan nan nan nan nan nan nan nan nan nan nan nan nan nan nan nan nan 188 192 193 185 183 191 196 197 201 205 208 213 214 212 210 213 213 213 213 215 217 218 218 218 220 223 225 224 225 228 228 228 226 220 215 216 218 219 219 219 214 203 200 200 199 199 200 203 210 216 222 226 228 229 228 226 229 235 242 246 250 252 262 269 272 269 270 269 269
nan nan nan nan nan nan nan nan nan nan nan nan nan nan nan nan nan nan 192 195 nan 183 189 193 195 197 201 206 211 214 213 211 212 213 213 212 215 217 218 218 218 221 224 223 222 224 227 229 228 226 223 219 214 218 220 220 219 218 213 208 203 201 200 201 204 210 218 224 229 232 234 236 232 230 231 234 238 240 242 245 252 258 262 265 265 262
nan nan nan nan nan nan nan nan nan nan nan nan nan nan nan nan nan nan 188 192 188 184 191 194 195 197 198 203 207 212 212 212 213 213 214 213 213 216 220 220 221 224 225 225 221 222 225 228 229 226 223 220 216 217 220 221 219 215 215 214 209 206 205 205 207 208 217 226 233 239 241 243 247 244 239 235 235 238 238 238 242 248 254 260 262 261
nan nan nan nan nan nan nan nan nan nan nan nan nan nan nan nan nan nan nan 186 187 189 191 194 198 198 198 201 204 209 211 210 212 213 216 217 215 216 218 220 221 225 228 224 221 221 223 226 228 228 226 223 221 220 221 221 220 217 216 216 215 213 211 210 209 212 222 229 237 242 242 246 246 246 247 244 242 238 235 231 231 233 237 235 240 249
nan nan nan nan nan nan nan nan nan nan nan nan nan nan nan nan nan nan nan nan nan 186 192 196 193 198 200 202 203 206 208 207 210 213 216 219 220 219 218 218 219 222 225 226 224 224 223 222 225 228 229 227 226 226 225 222 221 220 218 219 219 218 217 215 216 221 224 229 237 242 245 245 245 247 249 251 251 250 245 241 240 235 236 237 232 234
nan nan nan nan nan nan nan nan nan nan nan nan nan nan nan nan nan nan nan nan nan nan 191 198 197 195 199 201 204 nan 207 208 211 nan 217 221 223 221 219 217 219 220 224 228 228 225 226 225 224 226 229 230 231 230 228 227 224 221 220 221 221 221 221 223 224 226 230 232 239 244 248 248 249 249 251 252 253 253 254 250 241 236 236 241 245 244